Weather History for Meridian, MS

Change the Weather History Date:

Monday, April 21, 2014

  Actual Average Record
Temperature  
Mean Temperature 65 °F 64 °F  
Max Temperature 80 °F 77 °F 95 °F (1987)
Min Temperature 49 °F 51 °F 32 °F (1953)
Degree Days  
Heating Degree Days 0 3  
Month to date heating degree days 115 108  
Since 1 July heating degree days 2840 2512  
Cooling Degree Days 0 2  
Month to date cooling degree days 19 33  
Year to date cooling degree days 28 57  
Growing Degree Days 14 (Base 50)    
Moisture  
Dew Point 54 °F    
Average Humidity 72    
Maximum Humidity 100    
Minimum Humidity 43    
Precipitation  
Precipitation 0.00 in 0.15 in 3.97 in (1977)
Month to date precipitation 9.87 3.46  
Year to date precipitation 24.96 19.61  
Sea Level Pressure  
Sea Level Pressure 30.07 in    
Wind  
Wind Speed 4 mph (South)    
Max Wind Speed 13 mph    
Max Gust Speed 20 mph    
Visibility 10 miles    
Events      
T = Trace of Precipitation, MM = Missing Value Source: NWS Daily Summary

Daily Weather History Graph

Daily Weather History Graph

Search for Another Location

Airport:

Trip Planner

Search our weather history database for the weather conditions in past years. The results will help you decide how hot, cold, wet, or windy it might be!

Date:

Astronomy

Apr. 21, 2014 Rise Set
Actual Time 6:18 AM CDT 7:28 PM CDT
Civil Twilight 5:53 AM CDT 7:54 PM CDT
Nautical Twilight 5:23 AM CDT 8:24 PM CDT
Astronomical Twilight 4:51 AM CDT 8:56 PM CDT
Moon 12:53 AM CDT (4/21) 11:49 AM CDT (4/21)
Length of Visible Light 14h 01m
Length of Day
13h 09m
Waning Gibbous, 57% of the Moon is Illuminated
Apr 21
Waning Gibbous
Apr 22
Last Quarter
Apr 29
New
May 6
First Quarter
May 14
Full

Hourly Weather History & Observations

Time (CDT) Temp. Dew Point Humidity Pressure Visibility Wind Dir Wind Speed Gust Speed Precip Events Conditions
12:58 AM 54.0 °F 52.0 °F 93% 30.13 in 10.0 mi Calm Calm - N/A   Clear
1:58 AM 53.1 °F 51.1 °F 93% 30.13 in 10.0 mi Calm Calm - N/A   Clear
2:58 AM 52.0 °F 50.0 °F 93% 30.13 in 10.0 mi Calm Calm - N/A   Clear
3:58 AM 50.0 °F 48.9 °F 96% 30.13 in 10.0 mi Calm Calm - N/A   Clear
4:58 AM 51.1 °F 50.0 °F 96% 30.12 in 10.0 mi Calm Calm - N/A   Clear
5:58 AM 51.1 °F 50.0 °F 96% 30.13 in 10.0 mi Calm Calm - N/A   Clear
6:58 AM 51.8 °F 51.8 °F 100% 30.16 in 8.0 mi Calm Calm - N/A   Clear
7:58 AM 57.9 °F 55.9 °F 93% 30.16 in 10.0 mi South 4.6 mph - N/A   Clear
8:58 AM 63.0 °F 57.9 °F 84% 30.14 in 10.0 mi South 5.8 mph - N/A   Clear
9:58 AM 69.1 °F 55.9 °F 63% 30.13 in 10.0 mi SW 8.1 mph - 0.00 in   Clear
10:58 AM 73.0 °F 55.9 °F 55% 30.11 in 10.0 mi SSW 10.4 mph - N/A   Clear
11:58 AM 75.9 °F 54.0 °F 46% 30.11 in 10.0 mi SSW 9.2 mph - N/A   Clear
12:58 PM 75.9 °F 53.1 °F 45% 30.09 in 10.0 mi South 4.6 mph - N/A   Mostly Cloudy
1:58 PM 75.9 °F 54.0 °F 46% 30.08 in 10.0 mi South 8.1 mph - N/A   Scattered Clouds
2:58 PM 77.0 °F 54.0 °F 45% 30.04 in 10.0 mi Calm Calm - N/A   Partly Cloudy
3:58 PM 79.0 °F 55.0 °F 44% 30.02 in 10.0 mi South 8.1 mph - N/A   Mostly Cloudy
4:58 PM 77.0 °F 54.0 °F 45% 30.00 in 10.0 mi SSE 5.8 mph - N/A   Partly Cloudy
5:58 PM 77.0 °F 54.0 °F 45% 29.98 in 10.0 mi South 6.9 mph - N/A   Clear
6:58 PM 73.0 °F 57.0 °F 57% 29.97 in 10.0 mi Calm Calm - N/A   Partly Cloudy
7:58 PM 66.0 °F 59.0 °F 78% 29.97 in 10.0 mi SSW 3.5 mph - N/A   Scattered Clouds
8:58 PM 64.0 °F 59.0 °F 84% 29.98 in 10.0 mi South 3.5 mph - N/A   Partly Cloudy
9:58 PM 62.1 °F 59.0 °F 90% 29.99 in 10.0 mi SSW 3.5 mph - N/A   Clear
10:58 PM 61.0 °F 57.9 °F 90% 29.99 in 10.0 mi South 4.6 mph - N/A   Clear
11:58 PM 60.1 °F 57.9 °F 93% 29.99 in 10.0 mi South 5.8 mph - N/A   Clear